Stündliche Wetter Centralnyy

Heute, 19 Januar, Dienstag

Zeit Temperatur Niederschläge Wind Luftdruck Luftfeuchtigkeit
00:00 -18°C° 0.2 mm 0 m/S 750 mmHg 97%
01:00 -19°C° 0.1 mm 0 m/S 750 mmHg 98%
02:00 -19°C° 0.1 mm 0 m/S 750 mmHg 98%
03:00 -20°C° 0.1 mm 0 m/S 750 mmHg 98%
04:00 -21°C° 0 mm 0 m/S 750 mmHg 98%
05:00 -21°C° 0 mm 0 m/S 750 mmHg 99%
06:00 -22°C° 0 mm 0 m/S 750 mmHg 99%
07:00 -22°C° 0 mm 0 m/S 750 mmHg 99%
08:00 -22°C° 0 mm 0 m/S 750 mmHg 99%
09:00 -22°C° 0 mm 0 m/S 750 mmHg 98%
10:00 -21°C° 0 mm 0 m/S 750 mmHg 97%
11:00 -20°C° 0 mm 0 m/S 750 mmHg 95%
12:00 -19°C° 0 mm 1 m/S 750 mmHg 94%
13:00 -19°C° 0 mm 1 m/S 750 mmHg 94%
14:00 -19°C° 0 mm 1 m/S 749 mmHg 95%
15:00 -19°C° 0 mm 1 m/S 749 mmHg 95%
16:00 -20°C° 0 mm 1 m/S 749 mmHg 96%
17:00 -21°C° 0 mm 1 m/S 750 mmHg 96%
18:00 -22°C° 0 mm 1 m/S 750 mmHg 97%
19:00 -22°C° 0 mm 1 m/S 750 mmHg 97%
20:00 -22°C° 0 mm 1 m/S 750 mmHg 97%
21:00 -22°C° 0 mm 1 m/S 750 mmHg 97%
22:00 -22°C° 0 mm 1 m/S 750 mmHg 97%
23:00 -22°C° 0 mm 1 m/S 750 mmHg 97%

Morgen, 20 Januar, Mittwoch

Zeit Temperatur Niederschläge Wind Luftdruck Luftfeuchtigkeit
00:00 -24°C° 0 mm 2 m/S 750 mmHg 97%
01:00 -24°C° 0 mm 2 m/S 750 mmHg 97%
02:00 -23°C° 0 mm 2 m/S 750 mmHg 98%
03:00 -23°C° 0 mm 2 m/S 750 mmHg 98%
04:00 -23°C° 0.1 mm 2 m/S 750 mmHg 98%
05:00 -21°C° 0.1 mm 2 m/S 750 mmHg 97%
06:00 -21°C° 0.1 mm 2 m/S 750 mmHg 97%
07:00 -20°C° 0.1 mm 2 m/S 751 mmHg 97%
08:00 -20°C° 0.1 mm 2 m/S 751 mmHg 97%
09:00 -19°C° 0.1 mm 2 m/S 751 mmHg 96%
10:00 -19°C° 0.1 mm 2 m/S 752 mmHg 96%
11:00 -18°C° 0.1 mm 2 m/S 752 mmHg 95%
12:00 -18°C° 0.1 mm 3 m/S 752 mmHg 94%
13:00 -18°C° 0 mm 3 m/S 752 mmHg 94%
14:00 -18°C° 0 mm 3 m/S 752 mmHg 94%
15:00 -17°C° 0 mm 3 m/S 752 mmHg 94%
16:00 -18°C° 0 mm 3 m/S 753 mmHg 95%
17:00 -21°C° 0 mm 3 m/S 753 mmHg 96%
18:00 -22°C° 0 mm 3 m/S 753 mmHg 97%
19:00 -22°C° 0 mm 3 m/S 754 mmHg 97%
20:00 -20°C° 0 mm 2 m/S 754 mmHg 97%
21:00 -20°C° 0 mm 2 m/S 754 mmHg 97%
22:00 -21°C° 0 mm 2 m/S 754 mmHg 97%
23:00 -21°C° 0 mm 2 m/S 754 mmHg 97%

übermorgen, 21 Januar, Donnerstag

Zeit Temperatur Niederschläge Wind Luftdruck Luftfeuchtigkeit
00:00 -21°C° 0 mm 2 m/S 755 mmHg 98%
01:00 -21°C° 0 mm 2 m/S 755 mmHg 97%
02:00 -24°C° 0 mm 3 m/S 755 mmHg 97%
03:00 -24°C° 0 mm 3 m/S 755 mmHg 97%
04:00 -24°C° 0 mm 3 m/S 755 mmHg 96%
05:00 -24°C° 0 mm 3 m/S 755 mmHg 95%
06:00 -24°C° 0 mm 3 m/S 755 mmHg 94%
07:00 -24°C° 0 mm 3 m/S 756 mmHg 94%
08:00 -24°C° 0 mm 3 m/S 756 mmHg 93%
09:00 -24°C° 0 mm 3 m/S 756 mmHg 92%
10:00 -24°C° 0 mm 4 m/S 755 mmHg 92%
11:00 -22°C° 0 mm 4 m/S 755 mmHg 91%
12:00 -21°C° 0 mm 5 m/S 755 mmHg 91%
13:00 -20°C° 0 mm 5 m/S 754 mmHg 90%
14:00 -20°C° 0 mm 5 m/S 754 mmHg 89%
15:00 -20°C° 0 mm 6 m/S 753 mmHg 88%
16:00 -20°C° 0 mm 6 m/S 753 mmHg 88%
17:00 -19°C° 0 mm 7 m/S 752 mmHg 88%
18:00 -19°C° 0 mm 7 m/S 752 mmHg 88%
19:00 -18°C° 0.2 mm 7 m/S 751 mmHg 90%
20:00 -17°C° 0.2 mm 7 m/S 751 mmHg 91%
21:00 -15°C° 0.2 mm 7 m/S 750 mmHg 93%
22:00 -14°C° 0.3 mm 7 m/S 750 mmHg 93%
23:00 -13°C° 0.3 mm 7 m/S 749 mmHg 93%

22 Januar, Freitag

Zeit Temperatur Niederschläge Wind Luftdruck Luftfeuchtigkeit
00:00 -11°C° 0.3 mm 7 m/S 749 mmHg 92%
01:00 -9°C° 0.2 mm 7 m/S 749 mmHg 92%
02:00 -7°C° 0.2 mm 7 m/S 748 mmHg 92%
03:00 -6°C° 0.2 mm 7 m/S 748 mmHg 91%
04:00 -4°C° 0 mm 7 m/S 748 mmHg 91%
05:00 -4°C° 0 mm 7 m/S 748 mmHg 91%
06:00 -3°C° 0 mm 7 m/S 748 mmHg 90%
07:00 -3°C° 0 mm 7 m/S 748 mmHg 91%
08:00 -3°C° 0 mm 6 m/S 748 mmHg 91%
09:00 -2°C° 0 mm 6 m/S 748 mmHg 91%
10:00 -2°C° 0 mm 6 m/S 748 mmHg 92%
11:00 -1°C° 0 mm 5 m/S 748 mmHg 93%
12:00 -1°C° 0 mm 5 m/S 749 mmHg 94%
13:00 -1°C° 0 mm 5 m/S 749 mmHg 95%
14:00 -1°C° 0 mm 5 m/S 749 mmHg 95%
15:00 -1°C° 0 mm 5 m/S 749 mmHg 96%
16:00 -1°C° 0 mm 5 m/S 749 mmHg 95%
17:00 -2°C° 0 mm 5 m/S 749 mmHg 94%
18:00 -2°C° 0 mm 5 m/S 749 mmHg 93%
19:00 -2°C° 0 mm 5 m/S 749 mmHg 93%
20:00 -2°C° 0 mm 5 m/S 749 mmHg 93%
21:00 -2°C° 0 mm 6 m/S 749 mmHg 92%
22:00 -2°C° 0 mm 6 m/S 749 mmHg 93%
23:00 -2°C° 0 mm 6 m/S 749 mmHg 93%

23 Januar, Samstag

Zeit Temperatur Niederschläge Wind Luftdruck Luftfeuchtigkeit
00:00 -2°C° 0 mm 6 m/S 749 mmHg 94%
01:00 -2°C° 0 mm 6 m/S 749 mmHg 94%
02:00 -2°C° 0 mm 6 m/S 749 mmHg 95%
03:00 -2°C° 0 mm 6 m/S 749 mmHg 95%
04:00 -1°C° 0 mm 5 m/S 749 mmHg 95%
05:00 -1°C° 0 mm 5 m/S 749 mmHg 94%
06:00 -1°C° 0 mm 5 m/S 749 mmHg 94%
07:00 -1°C° 0 mm 5 m/S 749 mmHg 94%
08:00 -1°C° 0 mm 5 m/S 749 mmHg 95%
09:00 -1°C° 0 mm 5 m/S 749 mmHg 95%
10:00 -1°C° 0 mm 5 m/S 749 mmHg 97%
11:00 -1°C° 0 mm 5 m/S 749 mmHg 98%
12:00 -1°C° 0 mm 5 m/S 749 mmHg 99%
13:00 -1°C° 0 mm 5 m/S 749 mmHg 99%
14:00 -1°C° 0 mm 5 m/S 748 mmHg 99%
15:00 -1°C° 0 mm 4 m/S 748 mmHg 99%
16:00 -1°C° 0 mm 5 m/S 748 mmHg 99%
17:00 -1°C° 0 mm 5 m/S 748 mmHg 98%
18:00 -1°C° 0 mm 5 m/S 748 mmHg 97%
19:00 -1°C° 0 mm 5 m/S 748 mmHg 97%
20:00 -1°C° 0 mm 5 m/S 748 mmHg 97%
21:00 -1°C° 0 mm 5 m/S 748 mmHg 97%
22:00 -1°C° 0.1 mm 5 m/S 748 mmHg 97%
23:00 -1°C° 0.1 mm 5 m/S 748 mmHg 98%

24 Januar, Sonntag

Zeit Temperatur Niederschläge Wind Luftdruck Luftfeuchtigkeit
00:00 -1°C° 0.1 mm 5 m/S 748 mmHg 98%
01:00 -1°C° 0 mm 5 m/S 748 mmHg 98%
02:00 -1°C° 0 mm 5 m/S 748 mmHg 98%
03:00 -1°C° 0 mm 4 m/S 749 mmHg 98%
04:00 -1°C° 0 mm 4 m/S 749 mmHg 98%
05:00 -1°C° 0 mm 4 m/S 749 mmHg 98%
06:00 -1°C° 0 mm 4 m/S 749 mmHg 98%
07:00 -1°C° 0 mm 4 m/S 749 mmHg 98%
08:00 -1°C° 0 mm 4 m/S 749 mmHg 98%
09:00 -1°C° 0 mm 4 m/S 750 mmHg 98%
10:00 -1°C° 0 mm 4 m/S 750 mmHg 99%
11:00 -1°C° 0 mm 4 m/S 750 mmHg 99%
12:00 -1°C° 0 mm 4 m/S 750 mmHg 99%
13:00 -1°C° 0 mm 4 m/S 750 mmHg 99%
14:00 -1°C° 0 mm 4 m/S 750 mmHg 99%
15:00 -1°C° 0 mm 4 m/S 750 mmHg 99%
16:00 -1°C° 0 mm 4 m/S 750 mmHg 99%
17:00 -1°C° 0 mm 4 m/S 750 mmHg 98%
18:00 -1°C° 0 mm 4 m/S 750 mmHg 98%
19:00 -1°C° 0 mm 5 m/S 750 mmHg 96%
20:00 -1°C° 0 mm 5 m/S 750 mmHg 95%
21:00 -1°C° 0 mm 5 m/S 750 mmHg 94%
22:00 -1°C° 0.1 mm 5 m/S 749 mmHg 89%
23:00 -3°C° 0.1 mm 6 m/S 749 mmHg 85%
Mehr zeigen

Wir brauchen deine Erlaubnis

Meteoprog und unser Service Anbieter werden persönliche Daten aufbewahren, so wie Cookies, Geräte Bezeichnung oder ähnliche Technologien von deinem Gerät und Prozess, so wie Persönliche Daten Inhalte und Werbungen, genauso wie social Media und den Verkehr zu analysieren.

  • Aufbewahrung und/oder Zugang zu deiner Geräte Informationen.

    Cookies, Geräte Bezeichnung oder andere Informationen, können aufbewahrt oder Zugang zu deinem Gerät erhalten, für den Grund, der oben angegeben wird.

  • Personalisierte Werbung und Inhalte, Messungen, Einblick in das Publikum und Produkt Entwicklung.

    Werbungen und Inhalte können personalisiert werden, basierend auf ein Profil. Mehr Daten können besser personalisierte Werbungen und Inhalte hinzufügen. Werbung und Inhalte können gezeigt und gemessen werden. Einblicke über das Publikum, welche die Werbung gesehen haben und den Inhalt, können abgeleitet werden. So wie Daten können genutzt werden, um es zu verbessern oder die Benutzer Erfahrung zu verbessern das System und die Software.

Wenn du “Ich stimme zu” klickst, erlaubst du uns, die Cookies zu benutzen die Geräte Bezeichnung, den Web oder ähnliche Technologien zu benutzen. Deine Settings, können in deinem Gerät bei deinem Browser geändert werden.

Für den bestimmten Zweck, berechtigten Interessen beruhen darauf, mehr als auf den Inhalt. Du kannst mehr darüber in unseren Privaten und Cookie Politik lesen.